Tracking 26321 objects as of 27-Nov-2022
HD Live streaming from Space Station
objects crossing your sky now

STARLINK-3991

Track STARLINK-3991 now!
10-day predictions
STARLINK-3991 is classified as:


NORAD ID: 52641
Int'l Code: 2022-052AV
Perigee: 544.8 km
Apogee: 548.9 km
Inclination: 53.2 °
Period: 95.4 minutes
Semi major axis: 6917 km
RCS: Unknown
Launch date: May 14, 2022
Source: United States (US)
Launch site: AIR FORCE EASTERN TEST RANGE (AFETR)
aabbcc
Your satellite tracking list
Your tracking list is empty




NASA's NSSDC Master Catalog

Two Line Element Set (TLE):
1 52641U 22052AV  22330.45105032  .00002936  00000-0  20244-3 0  9994
2 52641  53.2167 242.7096 0002967  31.7311 328.3860 15.08855916 30094
Source of the keplerian elements: AFSPC